[[{"header":{"parameterUnit":"m.s-1","parameterCategory":2,"la1":30.2991,"la2":30.254,"lo1":-89.0895,"lo2":-89.0444,"dy":0.0017,"dx":0.0017,"nx":28,"ny":28,"refTime":"2023-10-29T03:00:00:Z","depth":"0","parameterNumber":2,"parameterNumberName":"U-component_of_CURRENTS"},"data":[0,0,0,0,0,0,0,0,0,0,0,0,0,0,0,0,0,0,0,0,0,0,0,0,0,0,0,0,0,0,0,0,0,0,0,0,0,0,0,0,0,0,0,0,0,0,0,0,0,0,0,0,0,0,0,0,0,0,0.2705,0.2706,0,0.2778,0.2779,0.278,0.2811,0.2811,0.2811,0.2811,0.2835,0.2836,0.2836,0,0,0,0,0,0,0,0,0,0,0,0,0,0.2555,0.2557,0.2705,0.2706,0.2707,0.2778,0.2779,0.278,0.2811,0.2811,0.2811,0.2811,0.2835,0.2836,0.2836,0,0,0,0,0,0,0,0,0,0,0,0,0,0.2622,0.2558,0.2705,0.2731,0.2735,0.2778,0.2779,0.278,0.2811,0.2811,0.2811,0.2811,0.2834,0.2835,0.2837,0.2845,0,0,0.284,0.284,0,0,0,0,0,0,0,0,0.2618,0.2628,0.2726,0.273,0.2733,0.2786,0.2735,0.28,0.2811,0.2781,0.2811,0.281,0.2815,0.2817,0.2831,0.2846,0.2847,0.284,0.284,0.2841,0.2841,0,0,0,0,0,0,0,0.2614,0.2624,0.2733,0.2728,0.2732,0.2727,0.2737,0.2748,0.2796,0.2783,0.2786,0.2796,0.2816,0.283,0.2831,0.2847,0.284,0.2841,0.2841,0.2842,0.2909,0.291,0,0,0,0,0,0,0.2609,0.2621,0.2731,0.2735,0.2676,0.273,0.2741,0.2768,0.2797,0.2802,0.2796,0.2797,0.2828,0.283,0.2832,0.2891,0.2841,0.2842,0.2842,0.2908,0.2909,0.2911,0,0,0,0,0,0,0.2606,0.2619,0.2728,0.2679,0.2692,0.2733,0.2763,0.277,0.2786,0.2807,0.2811,0.2806,0.2828,0.2831,0.2847,0.289,0.2842,0.2843,0.2907,0.2908,0.291,0.2978,0,0,0,0,0,0,0.2602,0.2618,0.263,0.2679,0.2695,0.2756,0.2764,0.2772,0.2793,0.2795,0.2817,0.2819,0.2828,0.2846,0.2848,0.2891,0.2844,0.2905,0.2907,0.2909,0.2974,0.2982,0.2988,0,0,0,0,0,0.2596,0.2615,0.2631,0.2644,0.2714,0.2757,0.2765,0.2791,0.2793,0.2804,0.2818,0.2818,0.2862,0.2847,0.285,0.2894,0.2904,0.2907,0.2909,0.2971,0.298,0.2988,0,0,0,0,0,0,0.2548,0.2622,0.264,0.2678,0.2716,0.2763,0.2777,0.2791,0.2813,0.2814,0.2825,0.2829,0.2872,0.2861,0.2844,0.2919,0.2886,0.2889,0.2932,0.2941,0.2948,0.2955,0.2845,0,0,0,0,0,0.2546,0.2583,0.2643,0.2669,0.2694,0.2734,0.2753,0.2774,0.2802,0.2812,0.2831,0.2851,0.2886,0.2892,0.2919,0.2942,0.2946,0.2973,0.298,0.2986,0.2994,0.3041,0.3053,0.2919,0.2919,0.2919,0,0,0.2529,0.2577,0.2594,0.2662,0.2696,0.2738,0.2746,0.2781,0.2816,0.2809,0.2857,0.2881,0.2899,0.2946,0.2963,0.2938,0.3025,0.299,0.2995,0.2999,0.3045,0.3058,0.307,0.2921,0.2921,0.292,0,0,0.2527,0.2566,0.2604,0.2642,0.2702,0.2732,0.2742,0.28,0.2827,0.2867,0.289,0.2932,0.2962,0.3002,0.302,0.3073,0.3071,0.3081,0.3113,0.3159,0.3171,0.3181,0.3198,0.3209,0.3072,0.3072,0.3072,0,0.2505,0.2567,0.2614,0.2664,0.2694,0.2732,0.2772,0.2811,0.2863,0.2892,0.2887,0.2981,0.2997,0.3071,0.3097,0.3094,0.3104,0.3082,0.317,0.318,0.319,0.3204,0.3216,0.3076,0.3075,0.3075,0.3075,0,0.2537,0.2587,0.261,0.2693,0.2728,0.2764,0.2829,0.2869,0.29,0.294,0.3021,0.3055,0.3107,0.313,0.313,0.3215,0.3195,0.3185,0.3151,0.3208,0.3219,0.323,0.3081,0.308,0.3079,0.3078,0,0,0.2493,0.2612,0.2619,0.2661,0.2746,0.2776,0.2846,0.292,0.2964,0.3026,0.309,0.317,0.3192,0.3214,0.3235,0.3274,0.3352,0.3256,0.3256,0.3276,0.3437,0.3305,0.3304,0.3359,0.3361,0.3363,0.3416,0,0.2504,0.259,0.2649,0.2715,0.2764,0.2825,0.2883,0.2952,0.3009,0.308,0.3148,0.3211,0.3223,0.325,0.3303,0.3346,0.3385,0.3337,0.3376,0.3376,0.3256,0.3314,0.3073,0.3089,0.3427,0.3428,0.343,0,0.2516,0.2577,0.2646,0.274,0.2766,0.2806,0.2896,0.2955,0.3066,0.3114,0.3199,0.3246,0.334,0.3326,0.344,0.3407,0.3432,0.3454,0.3456,0.3317,0.3265,0.3088,0.3096,0.2999,0.3446,0.3445,0.3444,0,0.2458,0.2568,0.2617,0.265,0.2764,0.2802,0.2856,0.296,0.3016,0.3133,0.3178,0.3295,0.3347,0.3418,0.3484,0.3463,0.3589,0.356,0.3465,0.3455,0.3248,0.3214,0.3167,0.3637,0.3636,0.3636,0.3636,0,0.2445,0.2486,0.2593,0.262,0.2676,0.2763,0.2828,0.2904,0.3011,0.3078,0.3183,0.3252,0.3374,0.3461,0.3507,0.3523,0.3612,0.3482,0.3468,0.3261,0.323,0.3132,0.3102,0.3638,0.3638,0.3637,0.3637,0,0.2385,0.2454,0.2517,0.2624,0.2654,0.269,0.2801,0.2852,0.2954,0.3046,0.3082,0.3234,0.3325,0.3431,0.3543,0.3525,0.3433,0.3551,0.3285,0.3237,0.299,0.2973,0.2808,0.274,0.3421,0.3419,0.3416,0,0.2367,0.2393,0.2495,0.2525,0.2574,0.2643,0.2692,0.2809,0.2866,0.3029,0.3066,0.3187,0.327,0.3378,0.3368,0.3402,0.3329,0.317,0.3078,0.2948,0.2921,0.2829,0.278,0.2835,0.2829,0.2823,0.2818,0,0.2332,0.2363,0.2415,0.2472,0.2521,0.2585,0.2662,0.2701,0.284,0.2905,0.3016,0.3095,0.3172,0.3093,0.3111,0.3094,0.2941,0.3048,0.2993,0.2519,0.2338,0.2273,0.283,0.2767,0.2773,0.2776,0.2779,0.2781,0.2298,0.2312,0.2372,0.2411,0.2467,0.2519,0.2532,0.2616,0.2681,0.2751,0.2892,0.2908,0.2837,0.281,0.2789,0.2508,0.261,0.2358,0.2369,0.2306,0.2157,0.2585,0.2456,0.2459,0.2461,0.2464,0.2466,0,0.2247,0.2267,0.2309,0.2349,0.2362,0.2428,0.2497,0.2486,0.2504,0.258,0.2635,0.2496,0.2349,0.2259,0.1985,0.1855,0.1794,0.1778,0.1608,0.1619,0.2053,0.1942,0.1597,0.1597,0.1597,0.1597,0.1597,0.1597,0.2227,0.2227,0.2236,0.2226,0.225,0.2241,0.2257,0.2257,0.2279,0.2196,0.2087,0.2079,0.1929,0.1637,0.1381,0.1343,0.1268,0.1123,0.1267,0.1572,0.1628,0.1681,0.1571,0.1153,0.1153,0.0698,0.0694,0.0691]},{"header":{"parameterUnit":"m.s-1","parameterCategory":2,"la1":30.2991,"la2":30.254,"lo1":-89.0895,"lo2":-89.0444,"dy":0.0017,"dx":0.0017,"nx":28,"ny":28,"refTime":"2023-10-29T03:00:00:Z","depth":"0","parameterNumber":3,"parameterNumberName":"V-component_of_CURRENTS"},"data":[0,0,0,0,0,0,0,0,0,0,0,0,0,0,0,0,0,0,0,0,0,0,0,0,0,0,0,0,0,0,0,0,0,0,0,0,0,0,0,0,0,0,0,0,0,0,0,0,0,0,0,0,0,0,0,0,0,0,-0.0046,-0.0047,0,-0.0106,-0.0107,-0.0108,-0.0157,-0.0157,-0.0157,-0.0157,-0.0229,-0.0231,-0.0232,0,0,0,0,0,0,0,0,0,0,0,0,0,-0.0002,-0.0002,-0.0046,-0.0047,-0.0047,-0.0105,-0.0107,-0.0108,-0.0157,-0.0157,-0.0157,-0.0158,-0.0228,-0.023,-0.0233,0,0,0,0,0,0,0,0,0,0,0,0,0,-0.0041,-0.0003,-0.0046,-0.0076,-0.0079,-0.0105,-0.0107,-0.0108,-0.0157,-0.0157,-0.0157,-0.0158,-0.0228,-0.023,-0.0233,-0.0244,0,0,-0.0241,-0.0242,0,0,0,0,0,0,0,0,-0.0038,-0.0043,-0.0071,-0.0074,-0.0077,-0.0121,-0.0117,-0.0153,-0.0157,-0.0131,-0.0157,-0.0158,-0.0191,-0.0197,-0.0213,-0.0248,-0.0251,-0.0241,-0.0243,-0.0244,-0.0245,0,0,0,0,0,0,0,-0.0036,-0.0041,-0.0074,-0.0071,-0.0075,-0.0094,-0.0101,-0.0124,-0.0162,-0.0134,-0.0136,-0.0136,-0.0193,-0.021,-0.0215,-0.0252,-0.0241,-0.0243,-0.0245,-0.0246,-0.0307,-0.0307,0,0,0,0,0,0,-0.0019,-0.0038,-0.0072,-0.0075,-0.0053,-0.0095,-0.0102,-0.011,-0.0162,-0.0169,-0.0136,-0.0138,-0.0206,-0.0212,-0.0217,-0.0234,-0.0244,-0.0246,-0.0248,-0.0307,-0.0307,-0.0307,0,0,0,0,0,0,-0.0018,-0.0022,-0.0069,-0.0054,-0.0061,-0.0095,-0.0104,-0.0111,-0.0121,-0.0163,-0.0171,-0.0138,-0.0206,-0.0214,-0.023,-0.0237,-0.0247,-0.025,-0.0307,-0.0307,-0.0307,-0.0266,0,0,0,0,0,0,-0.0016,-0.0021,-0.0019,-0.0053,-0.0061,-0.0075,-0.0103,-0.0111,-0.0119,-0.0123,-0.0167,-0.0175,-0.0207,-0.0226,-0.0233,-0.024,-0.0252,-0.0306,-0.0307,-0.0307,-0.0267,-0.0265,-0.0262,0,0,0,0,0,-0.0015,-0.001,-0.0018,-0.0022,-0.0058,-0.0074,-0.008,-0.0107,-0.0119,-0.0119,-0.0148,-0.0173,-0.0232,-0.0227,-0.0236,-0.0244,-0.0306,-0.0307,-0.0307,-0.0268,-0.0265,-0.0262,0,0,0,0,0,0,0.0008,-0.0015,-0.0025,-0.0029,-0.0043,-0.008,-0.0082,-0.0098,-0.0123,-0.0127,-0.0168,-0.0177,-0.0198,-0.0222,-0.0216,-0.0263,-0.0276,-0.0277,-0.0244,-0.0241,-0.0239,-0.0215,-0.0254,0,0,0,0,0,0.0017,0.0015,-0.001,-0.001,-0.0016,-0.0047,-0.0055,-0.0072,-0.0098,-0.0109,-0.014,-0.0175,-0.0206,-0.0221,-0.0252,-0.0269,-0.0269,-0.0282,-0.028,-0.0278,-0.0265,-0.0282,-0.0279,-0.0307,-0.0307,-0.0307,0,0,0.0027,0.0015,0.0014,-0.0004,-0.0021,-0.0025,-0.0054,-0.0062,-0.0066,-0.0112,-0.0128,-0.0165,-0.0208,-0.0234,-0.0246,-0.0253,-0.0263,-0.0278,-0.0275,-0.0263,-0.0281,-0.0278,-0.0276,-0.0307,-0.0307,-0.0307,0,0,0.0049,0.0035,0.0041,0.0032,0.0017,-0.0002,0.0002,-0.003,-0.0046,-0.006,-0.0102,-0.0136,-0.0176,-0.0217,-0.024,-0.0239,-0.0249,-0.0253,-0.0223,-0.0239,-0.0237,-0.0235,-0.0199,-0.0195,-0.0252,-0.0252,-0.0252,0,0.0062,0.0065,0.0042,0.0046,0.0045,0.0013,0.0022,0.0001,-0.0031,-0.0042,-0.0056,-0.013,-0.017,-0.0208,-0.0212,-0.0234,-0.0223,-0.023,-0.0235,-0.0233,-0.0232,-0.0196,-0.0191,-0.025,-0.025,-0.0251,-0.0251,0,0.0088,0.0091,0.0095,0.0089,0.0084,0.0087,0.0062,0.0051,0.0031,0.0004,-0.0032,-0.0089,-0.013,-0.0158,-0.0184,-0.0203,-0.0189,-0.0228,-0.0238,-0.0226,-0.0189,-0.0185,-0.0247,-0.0248,-0.0249,-0.0249,0,0,0.0116,0.0114,0.0117,0.0125,0.0109,0.011,0.0105,0.0088,0.0088,0.0042,0.0035,-0.0038,-0.007,-0.0098,-0.0147,-0.0167,-0.0147,-0.0184,-0.0186,-0.0139,-0.0135,-0.0085,-0.0075,-0.0185,-0.0185,-0.0185,-0.0102,0,0.0145,0.0169,0.0157,0.018,0.0189,0.0164,0.0166,0.0145,0.012,0.0103,0.0035,0.0006,-0.0047,-0.0065,-0.0096,-0.0141,-0.0138,-0.0162,-0.0162,-0.016,-0.0111,-0.0071,-0.0021,0.006,-0.0097,-0.0097,-0.0096,0,0.0177,0.0189,0.022,0.0229,0.0231,0.0241,0.0241,0.0238,0.0199,0.0179,0.0134,0.0084,0.004,-0.0006,-0.0052,-0.0061,-0.0081,-0.0112,-0.0111,-0.0076,-0.0103,0.0014,0.0073,0.0018,-0.009,-0.009,-0.0091,0,0.0217,0.0232,0.0263,0.0267,0.0271,0.0283,0.0284,0.0261,0.0267,0.0231,0.0235,0.0161,0.0147,0.0086,0.0026,-0.0008,-0.0002,-0.0066,-0.003,-0.0025,0.0012,0.002,0.0024,-0.0077,-0.0077,-0.0077,-0.0077,0,0.0254,0.0276,0.0287,0.0305,0.0344,0.0329,0.0362,0.035,0.0341,0.0366,0.0283,0.03,0.0171,0.0148,0.0075,0.0062,0.0041,0.0004,-0.0002,0.0032,0.004,-0.0013,-0.0053,-0.0074,-0.0075,-0.0075,-0.0076,0,0.0289,0.0298,0.0334,0.0354,0.0366,0.0394,0.0423,0.0442,0.0434,0.0469,0.0466,0.042,0.0406,0.0302,0.0226,0.0156,0.0105,0.0111,0.019,0.0191,0.0153,0.0114,0.0155,0.0131,0.0163,0.0165,0.0166,0,0.0307,0.0331,0.0376,0.0407,0.0421,0.046,0.0489,0.049,0.052,0.0559,0.0588,0.0583,0.0616,0.0539,0.041,0.033,0.0221,0.0296,0.0218,0.0189,0.014,0.0111,0.0084,0.0299,0.0302,0.0304,0.0305,0,0.0339,0.036,0.0393,0.046,0.0504,0.0551,0.0599,0.064,0.0663,0.0722,0.081,0.0846,0.0797,0.075,0.0623,0.0528,0.0283,0.0336,0.0266,0.0232,0.024,0.0202,0.0236,0.0323,0.0321,0.032,0.0319,0.0318,0.0365,0.0398,0.0451,0.0516,0.0571,0.0643,0.0696,0.0766,0.0859,0.0979,0.1004,0.1128,0.1021,0.0871,0.0728,0.0492,0.0457,0.0401,0.0359,0.0335,0.0302,0.041,0.05,0.0499,0.0498,0.0498,0.0497,0,0.0398,0.0441,0.0501,0.0585,0.0654,0.0672,0.0769,0.084,0.0982,0.1145,0.1267,0.1341,0.1226,0.1005,0.0712,0.0547,0.0437,0.0429,0.0373,0.0339,0.041,0.0402,0.0523,0.0523,0.0523,0.0523,0.0523,0.0523,0.0418,0.0484,0.0519,0.0643,0.0701,0.0796,0.0857,0.0985,0.1123,0.135,0.1486,0.1572,0.1416,0.0939,0.0608,0.0509,0.0361,0.0367,0.0271,0.0286,0.0278,0.0271,0.0252,0.034,0.0339,0.0221,0.0219,0.0218]}],[{"header":{"parameterUnit":"m.s-1","parameterCategory":2,"la1":30.2991,"la2":30.254,"lo1":-89.0895,"lo2":-89.0444,"dy":0.0017,"dx":0.0017,"nx":28,"ny":28,"refTime":"2023-10-29T03:00:00:Z","depth":"2","parameterNumber":2,"parameterNumberName":"U-component_of_CURRENTS"},"data":[0,0,0,0,0,0,0,0,0,0,0,0,0,0,0,0,0,0,0,0,0,0,0,0,0,0,0,0,0,0,0,0,0,0,0,0,0,0,0,0,0,0,0,0,0,0,0,0,0,0,0,0,0,0,0,0,0,0,0.1922,0.1922,0,0.1913,0.1912,0.1912,0.1894,0.1894,0.1894,0.1894,0.1885,0.1885,0.1885,0,0,0,0,0,0,0,0,0,0,0,0,0,0.1935,0.1934,0.1922,0.1922,0.1922,0.1913,0.1912,0.1912,0.1894,0.1894,0.1894,0.1894,0.1885,0.1885,0.1885,0,0,0,0,0,0,0,0,0,0,0,0,0,0.1926,0.1934,0.1922,0.1913,0.1913,0.1913,0.1912,0.1912,0.1894,0.1894,0.1894,0.1893,0.1885,0.1885,0.1885,0.1891,0,0,0.1885,0.1885,0,0,0,0,0,0,0,0,0.1926,0.1925,0.1915,0.1914,0.1913,0.1906,0.1914,0.1905,0.1894,0.19,0.1894,0.1893,0.1894,0.1893,0.1889,0.189,0.189,0.1885,0.1885,0.1885,0.1885,0,0,0,0,0,0,0,0.1927,0.1926,0.1917,0.1915,0.1914,0.1913,0.1911,0.1912,0.1897,0.1899,0.1898,0.19,0.1893,0.1889,0.1889,0.189,0.1885,0.1885,0.1885,0.1885,0.1946,0.1947,0,0,0,0,0,0,0.1931,0.1926,0.1917,0.1917,0.1921,0.1913,0.1911,0.1907,0.1897,0.1896,0.19,0.1899,0.189,0.1889,0.1889,0.1928,0.1885,0.1885,0.1885,0.1944,0.1946,0.1948,0,0,0,0,0,0,0.1931,0.193,0.1918,0.1923,0.1921,0.1914,0.1909,0.1907,0.1917,0.1898,0.1896,0.1914,0.1889,0.1889,0.1902,0.1926,0.1885,0.1885,0.1942,0.1944,0.1947,0.1986,0,0,0,0,0,0,0.1932,0.193,0.1934,0.1923,0.1921,0.1929,0.1909,0.1907,0.1918,0.1917,0.1909,0.1907,0.1889,0.1902,0.1902,0.1926,0.1885,0.194,0.1943,0.1946,0.1983,0.1989,0.1995,0,0,0,0,0,0.1932,0.193,0.1934,0.1933,0.1925,0.193,0.193,0.1922,0.192,0.1929,0.1924,0.1908,0.1922,0.1903,0.1902,0.1927,0.1938,0.1942,0.1946,0.198,0.1988,0.1995,0,0,0,0,0,0,0.1933,0.1928,0.1932,0.1928,0.1939,0.1928,0.193,0.1935,0.1938,0.1936,0.1922,0.192,0.1948,0.1935,0.1914,0.1957,0.1931,0.1935,0.1957,0.1965,0.1971,0.1981,0.1885,0,0,0,0,0,0.1938,0.1936,0.194,0.194,0.1944,0.1945,0.1949,0.1949,0.1948,0.1949,0.1943,0.1945,0.1962,0.196,0.1969,0.1982,0.1987,0.2002,0.2008,0.2013,0.2023,0.2047,0.2056,0.196,0.196,0.196,0,0,0.1939,0.1936,0.1936,0.1941,0.1942,0.1957,0.1946,0.1955,0.1966,0.1948,0.1959,0.1972,0.1975,0.1995,0.2006,0.1983,0.2047,0.2018,0.2022,0.203,0.2052,0.2061,0.2069,0.1962,0.1962,0.1961,0,0,0.1937,0.1938,0.194,0.1955,0.1967,0.1969,0.198,0.1984,0.1984,0.2005,0.2002,0.2023,0.2037,0.2037,0.2043,0.2091,0.2089,0.2107,0.2132,0.2155,0.2163,0.217,0.2198,0.2207,0.2097,0.2097,0.2098,0,0.1942,0.1939,0.1944,0.1958,0.1965,0.198,0.1991,0.2002,0.2011,0.2021,0.2016,0.2062,0.2056,0.2089,0.2108,0.2103,0.2126,0.2098,0.2162,0.2169,0.2175,0.2203,0.2212,0.21,0.21,0.2099,0.2099,0,0.1947,0.1953,0.1955,0.1975,0.199,0.2,0.2019,0.2037,0.2048,0.2064,0.2107,0.2106,0.2129,0.2142,0.2139,0.219,0.2197,0.2175,0.2138,0.2187,0.2213,0.2222,0.2103,0.2102,0.2102,0.2101,0,0,0.193,0.1951,0.1955,0.1967,0.1996,0.2008,0.2035,0.2063,0.2087,0.2116,0.2145,0.2183,0.2195,0.2204,0.2205,0.2228,0.2289,0.2229,0.2229,0.225,0.2361,0.2254,0.2253,0.2286,0.2288,0.2289,0.2364,0,0.193,0.1945,0.1958,0.1985,0.1993,0.2023,0.205,0.2088,0.2109,0.2145,0.2174,0.2213,0.2214,0.2232,0.2257,0.2287,0.2315,0.2272,0.2317,0.2319,0.221,0.226,0.2048,0.2087,0.2373,0.2374,0.2376,0,0.1926,0.1935,0.1948,0.1983,0.1992,0.2019,0.2059,0.2087,0.2149,0.2171,0.2218,0.2249,0.2302,0.2286,0.2361,0.2341,0.2362,0.238,0.2382,0.2274,0.2227,0.2084,0.2093,0.239,0.2389,0.2388,0.2387,0,0.1897,0.1928,0.1931,0.1946,0.1994,0.2011,0.2042,0.2098,0.2127,0.2192,0.2233,0.2292,0.2324,0.2371,0.2402,0.24,0.2475,0.2462,0.2388,0.2381,0.2203,0.2176,0.2516,0.2515,0.2515,0.2515,0.2515,0,0.1877,0.1889,0.1923,0.1931,0.1958,0.1999,0.2035,0.2075,0.2138,0.2178,0.2246,0.2277,0.2352,0.2396,0.2425,0.2426,0.2487,0.2408,0.2393,0.2211,0.2185,0.2444,0.2434,0.2518,0.2517,0.2517,0.2516,0,0.1844,0.1863,0.1879,0.1924,0.1942,0.1964,0.2033,0.2054,0.2132,0.218,0.2212,0.2294,0.235,0.2405,0.2468,0.2436,0.2457,0.2438,0.222,0.2177,0.2353,0.2345,0.2387,0.2384,0.2381,0.2379,0.2377,0,0.1824,0.1825,0.1867,0.1876,0.1895,0.1937,0.1957,0.2036,0.2055,0.2172,0.2181,0.2274,0.2284,0.2336,0.2314,0.2334,0.2409,0.2131,0.2073,0.2359,0.2341,0.2337,0.2333,0.187,0.1864,0.1859,0.1855,0,0.1791,0.1806,0.1818,0.1832,0.1849,0.1875,0.191,0.1933,0.2016,0.2051,0.209,0.2119,0.2168,0.2064,0.2077,0.2061,0.211,0.2032,0.239,0.1919,0.1872,0.1854,0.1867,0.1812,0.1817,0.182,0.1822,0.1824,0.1767,0.1763,0.1774,0.1779,0.1798,0.1799,0.1782,0.1812,0.1828,0.1846,0.1928,0.1888,0.1898,0.1808,0.1747,0.1711,0.1882,0.1783,0.1798,0.1818,0.1729,0.1677,0.1567,0.1569,0.1572,0.1574,0.1576,0,0.1724,0.1719,0.172,0.171,0.1683,0.1729,0.173,0.1678,0.1634,0.1663,0.1656,0.1496,0.1409,0.1449,0.132,0.1307,0.1304,0.1248,0.1226,0.1269,0.1307,0.1192,0.0887,0.0885,0.0883,0.0881,0,0,0.1703,0.1673,0.1658,0.1592,0.1585,0.1522,0.1501,0.1431,0.1414,0.1332,0.128,0.1354,0.1394,0.113,0.1083,0.0962,0.1113,0.0916,0.1467,0.1484,0.152,0.161,0.148,0,0,0,0,0]},{"header":{"parameterUnit":"m.s-1","parameterCategory":2,"la1":30.2991,"la2":30.254,"lo1":-89.0895,"lo2":-89.0444,"dy":0.0017,"dx":0.0017,"nx":28,"ny":28,"refTime":"2023-10-29T03:00:00:Z","depth":"2","parameterNumber":3,"parameterNumberName":"V-component_of_CURRENTS"},"data":[0,0,0,0,0,0,0,0,0,0,0,0,0,0,0,0,0,0,0,0,0,0,0,0,0,0,0,0,0,0,0,0,0,0,0,0,0,0,0,0,0,0,0,0,0,0,0,0,0,0,0,0,0,0,0,0,0,0,0.0225,0.0225,0,0.0224,0.0224,0.0224,0.022,0.022,0.022,0.022,0.0209,0.0209,0.0209,0,0,0,0,0,0,0,0,0,0,0,0,0,0.0197,0.0198,0.0225,0.0225,0.0225,0.0224,0.0224,0.0224,0.022,0.022,0.022,0.022,0.0209,0.0209,0.0209,0,0,0,0,0,0,0,0,0,0,0,0,0,0.0204,0.0198,0.0225,0.0223,0.0222,0.0224,0.0224,0.0224,0.022,0.022,0.022,0.022,0.0209,0.0209,0.0209,0.021,0,0,0.0208,0.0208,0,0,0,0,0,0,0,0,0.0204,0.0205,0.0223,0.0223,0.0223,0.0222,0.0211,0.0219,0.022,0.0221,0.022,0.022,0.0213,0.0212,0.0213,0.021,0.0209,0.0208,0.0208,0.0208,0.0208,0,0,0,0,0,0,0,0.0204,0.0205,0.0224,0.0223,0.0223,0.0213,0.0214,0.0212,0.0218,0.0221,0.0221,0.0221,0.0213,0.0213,0.0212,0.0209,0.0208,0.0208,0.0208,0.0207,0.02,0.02,0,0,0,0,0,0,0.0205,0.0205,0.0224,0.0224,0.0213,0.0214,0.0215,0.0222,0.0218,0.0217,0.0221,0.0221,0.0214,0.0213,0.0212,0.0223,0.0208,0.0207,0.0207,0.02,0.02,0.02,0,0,0,0,0,0,0.0205,0.0207,0.0224,0.0214,0.0216,0.0215,0.0223,0.0223,0.0224,0.0218,0.0217,0.0222,0.0213,0.0212,0.0213,0.0222,0.0207,0.0207,0.02,0.02,0.02,0.0238,0,0,0,0,0,0,0.0204,0.0207,0.0214,0.0215,0.0216,0.0231,0.0223,0.0223,0.0224,0.0223,0.0219,0.0218,0.0213,0.0214,0.0213,0.0221,0.0207,0.02,0.02,0.02,0.0237,0.024,0.0242,0,0,0,0,0,0.0203,0.0216,0.0215,0.0217,0.0226,0.0231,0.0232,0.023,0.0224,0.0229,0.0224,0.0218,0.0213,0.0214,0.0213,0.0221,0.02,0.02,0.02,0.0236,0.0239,0.0242,0,0,0,0,0,0,0.0206,0.0217,0.0215,0.023,0.0232,0.0231,0.0237,0.0231,0.0231,0.0231,0.0222,0.022,0.0221,0.0214,0.0216,0.0216,0.0203,0.0203,0.0231,0.0234,0.0236,0.025,0.0207,0,0,0,0,0,0.021,0.0225,0.0227,0.0239,0.0241,0.0238,0.024,0.0237,0.0236,0.0236,0.0233,0.0226,0.022,0.0222,0.0215,0.0221,0.0212,0.0223,0.0225,0.0227,0.0237,0.0228,0.0231,0.02,0.02,0.02,0,0,0.0212,0.0222,0.0229,0.024,0.0243,0.0255,0.0239,0.0246,0.0256,0.0235,0.025,0.0234,0.0222,0.0226,0.0226,0.0223,0.023,0.0227,0.0229,0.0238,0.0228,0.0231,0.0234,0.02,0.02,0.02,0,0,0.0231,0.0236,0.0255,0.026,0.0267,0.0267,0.0269,0.027,0.0272,0.0279,0.0263,0.0257,0.0252,0.0249,0.0244,0.0255,0.0238,0.0245,0.0276,0.0267,0.027,0.0273,0.0262,0.0263,0.0251,0.0251,0.0251,0,0.0232,0.026,0.0259,0.0278,0.0288,0.0274,0.0294,0.0295,0.0295,0.0302,0.0289,0.0278,0.0266,0.0273,0.0274,0.0263,0.0251,0.0269,0.0272,0.0274,0.0276,0.0264,0.0265,0.0253,0.0253,0.0253,0.0253,0,0.0265,0.0286,0.0298,0.0321,0.0329,0.0343,0.0344,0.0351,0.0347,0.0345,0.0347,0.0327,0.0322,0.0312,0.0297,0.0303,0.0287,0.0273,0.0269,0.0282,0.0268,0.0269,0.0256,0.0255,0.0255,0.0254,0,0,0.0277,0.0315,0.032,0.0342,0.0355,0.0367,0.0385,0.0401,0.0419,0.0404,0.0426,0.0402,0.0382,0.0376,0.0352,0.0344,0.0342,0.0317,0.0315,0.0314,0.0319,0.0309,0.0308,0.0326,0.0326,0.0326,0.0304,0,0.0306,0.0356,0.0364,0.0406,0.0432,0.0429,0.0451,0.0459,0.0461,0.0477,0.045,0.0456,0.0409,0.0408,0.039,0.0357,0.0344,0.0349,0.0301,0.0299,0.0295,0.0309,0.0329,0.0311,0.0304,0.0304,0.0304,0,0.0339,0.0371,0.0421,0.0463,0.0473,0.0493,0.0529,0.0546,0.0555,0.0556,0.0546,0.0523,0.0509,0.0468,0.0416,0.0419,0.0372,0.0341,0.0339,0.032,0.029,0.0296,0.0311,0.0304,0.0304,0.0304,0.0304,0,0.0362,0.0411,0.0457,0.047,0.0511,0.0534,0.0553,0.0571,0.0598,0.0609,0.0627,0.0591,0.0587,0.0524,0.0448,0.0433,0.0391,0.0364,0.031,0.0308,0.0312,0.031,0.0328,0.0328,0.0328,0.0328,0.0328,0,0.0397,0.0431,0.0474,0.05,0.0556,0.0567,0.0623,0.0635,0.0664,0.0709,0.0668,0.0692,0.06,0.056,0.0477,0.0398,0.041,0.0322,0.0306,0.0324,0.0324,0.0307,0.0305,0.0327,0.0327,0.0327,0.0327,0,0.0418,0.0445,0.0501,0.0553,0.0572,0.0612,0.0673,0.0713,0.0729,0.0789,0.0797,0.0773,0.0727,0.0629,0.0538,0.0448,0.0369,0.0334,0.0361,0.0348,0.0282,0.0282,0.0277,0.0276,0.0276,0.0276,0.0275,0,0.0436,0.0469,0.054,0.0578,0.0606,0.0665,0.0711,0.0745,0.0795,0.0844,0.0881,0.0853,0.0847,0.0703,0.0558,0.0421,0.0385,0.0328,0.0303,0.0295,0.0279,0.028,0.028,0.032,0.032,0.032,0.032,0,0.047,0.0495,0.0543,0.0621,0.0679,0.0748,0.0817,0.0867,0.0918,0.0967,0.1022,0.1021,0.0898,0.077,0.0574,0.0473,0.0351,0.0325,0.0321,0.0329,0.0334,0.0318,0.0318,0.0321,0.0321,0.0321,0.0321,0.0321,0.0495,0.0532,0.0596,0.0668,0.0736,0.0822,0.0886,0.0961,0.1046,0.1115,0.1115,0.1102,0.096,0.0714,0.0551,0.0368,0.0379,0.0294,0.0295,0.0295,0.0303,0.0307,0.0291,0.0291,0.0291,0.0291,0.029,0,0.0525,0.0568,0.0637,0.0727,0.08,0.0833,0.095,0.1014,0.1117,0.1163,0.1198,0.1046,0.0911,0.0733,0.0482,0.033,0.031,0.026,0.0277,0.0278,0.0279,0.0286,0.0269,0.0268,0.0268,0.0267,0,0,0.0543,0.0606,0.0639,0.0758,0.0823,0.0929,0.0998,0.1089,0.1147,0.1186,0.1166,0.1145,0.0955,0.0757,0.0568,0.0421,0.0373,0.0379,0.0417,0.0463,0.0465,0.0325,0.0341,0,0,0,0,0]}],[{"header":{"parameterUnit":"m.s-1","parameterCategory":2,"la1":30.2991,"la2":30.254,"lo1":-89.0895,"lo2":-89.0444,"dy":0.0017,"dx":0.0017,"nx":28,"ny":28,"refTime":"2023-10-29T03:00:00:Z","depth":"4","parameterNumber":2,"parameterNumberName":"U-component_of_CURRENTS"},"data":[0,0,0,0,0,0,0,0,0,0,0,0,0,0,0,0,0,0,0,0,0,0,0,0,0,0,0,0,0,0,0,0,0,0,0,0,0,0,0,0,0,0,0,0,0,0,0,0,0,0,0,0,0,0,0,0,0,0,0.1054,0.1054,0,0.1047,0.1046,0.1046,0.1056,0.1056,0.1057,0.1057,0.1075,0.1075,0.1075,0,0,0,0,0,0,0,0,0,0,0,0,0,0.1111,0.1109,0.1054,0.1054,0.1054,0.1047,0.1046,0.1046,0.1056,0.1056,0.1057,0.1057,0.1075,0.1075,0.1075,0,0,0,0,0,0,0,0,0,0,0,0,0,0.1092,0.1109,0.1054,0.1059,0.1059,0.1047,0.1046,0.1046,0.1055,0.1056,0.1057,0.1058,0.1075,0.1075,0.1075,0.1061,0,0,0.1075,0.1075,0,0,0,0,0,0,0,0,0.1093,0.1089,0.1058,0.1058,0.1059,0.1054,0.1073,0.1053,0.1055,0.1055,0.1057,0.1058,0.1071,0.1071,0.1066,0.1062,0.1062,0.1075,0.1075,0.1075,0.1075,0,0,0,0,0,0,0,0.1094,0.109,0.1049,0.1058,0.1058,0.1074,0.1071,0.1069,0.1058,0.1055,0.1056,0.1058,0.1071,0.1066,0.1066,0.1063,0.1075,0.1075,0.1075,0.1075,0.1134,0.1136,0,0,0,0,0,0,0.1095,0.1091,0.105,0.1049,0.108,0.1072,0.1069,0.1054,0.1058,0.1059,0.1057,0.1058,0.1065,0.1066,0.1067,0.1115,0.1075,0.1075,0.1075,0.1133,0.1135,0.1136,0,0,0,0,0,0,0.1096,0.109,0.105,0.1072,0.1069,0.107,0.1053,0.1053,0.1072,0.1059,0.1061,0.1079,0.1066,0.1067,0.1091,0.1113,0.1075,0.1075,0.1131,0.1133,0.1136,0.1169,0,0,0,0,0,0,0.1097,0.109,0.1094,0.1072,0.1067,0.1055,0.1052,0.1053,0.1071,0.1073,0.1078,0.1079,0.1066,0.1091,0.1091,0.1112,0.1075,0.1129,0.1132,0.1135,0.1166,0.1172,0.1178,0,0,0,0,0,0.1099,0.1093,0.1093,0.109,0.1066,0.1055,0.1054,0.1058,0.1072,0.1078,0.1091,0.108,0.111,0.1092,0.1092,0.1114,0.1128,0.1131,0.1135,0.1163,0.1171,0.1178,0,0,0,0,0,0,0.1125,0.1093,0.1093,0.108,0.1077,0.1058,0.107,0.1073,0.1087,0.1102,0.1093,0.1094,0.1128,0.1119,0.11,0.1143,0.112,0.1123,0.1142,0.1149,0.1155,0.1158,0.1075,0,0,0,0,0,0.113,0.1121,0.1097,0.1096,0.1092,0.1088,0.1091,0.1094,0.1097,0.1105,0.111,0.1124,0.1136,0.1142,0.1152,0.1167,0.117,0.1185,0.1191,0.1196,0.1201,0.1227,0.1235,0.1148,0.1148,0.1148,0,0,0.1144,0.1127,0.1125,0.1102,0.1101,0.1097,0.1092,0.1104,0.1112,0.1105,0.1133,0.1147,0.1149,0.1171,0.1185,0.1168,0.1224,0.12,0.1204,0.1207,0.1232,0.124,0.1247,0.115,0.115,0.1149,0,0,0.1157,0.1149,0.1141,0.1135,0.1135,0.1129,0.1138,0.1133,0.1145,0.1166,0.1173,0.1201,0.1213,0.1217,0.122,0.1265,0.1259,0.1277,0.13,0.1325,0.1332,0.1339,0.1356,0.1364,0.1273,0.1273,0.1273,0,0.118,0.1155,0.1143,0.1135,0.1137,0.1145,0.1144,0.1152,0.1163,0.1177,0.1184,0.1228,0.1232,0.1256,0.1277,0.1276,0.1292,0.1268,0.1332,0.1338,0.1344,0.136,0.1368,0.1275,0.1275,0.1275,0.1274,0,0.1171,0.1166,0.1166,0.1153,0.1157,0.1163,0.1164,0.1186,0.1209,0.1215,0.126,0.1271,0.1294,0.1306,0.1304,0.1352,0.1351,0.134,0.1309,0.1354,0.1369,0.1377,0.1278,0.1277,0.1277,0.1276,0,0,0.1178,0.1161,0.1165,0.1162,0.1168,0.1166,0.1194,0.1207,0.1231,0.1259,0.1289,0.1323,0.1342,0.1349,0.1358,0.1382,0.1438,0.1386,0.1386,0.1395,0.1501,0.1395,0.1393,0.1444,0.1445,0.1446,0.1495,0,0.1178,0.1162,0.1159,0.1166,0.1156,0.1179,0.1199,0.1224,0.1252,0.1286,0.1314,0.1351,0.1352,0.138,0.1404,0.1438,0.146,0.1426,0.1463,0.1464,0.1358,0.1398,0.1451,0.1501,0.1503,0.1504,0.1505,0,0.1159,0.1151,0.115,0.116,0.1161,0.118,0.122,0.124,0.129,0.1317,0.1359,0.1383,0.1436,0.1429,0.1496,0.148,0.1497,0.1514,0.1515,0.1408,0.1372,0.1448,0.1518,0.1517,0.1516,0.1515,0.1514,0,0.1144,0.1144,0.1146,0.1147,0.1162,0.1188,0.1213,0.126,0.1283,0.135,0.1383,0.1433,0.1476,0.1511,0.1549,0.1536,0.1617,0.1592,0.1507,0.15,0.1564,0.1557,0.1632,0.1632,0.1632,0.1632,0.1632,0,0.1119,0.1124,0.1146,0.1142,0.1163,0.1187,0.1226,0.1261,0.1318,0.1346,0.1405,0.1435,0.1505,0.1552,0.1571,0.1564,0.1633,0.1518,0.1506,0.1578,0.1572,0.1569,0.1562,0.1634,0.1633,0.1633,0.1633,0,0.1092,0.1103,0.1105,0.1135,0.1151,0.1172,0.1228,0.1248,0.1319,0.1362,0.1391,0.1464,0.1519,0.1568,0.163,0.1582,0.1592,0.1571,0.1656,0.1647,0.1451,0.1445,0.1469,0.1466,0.1463,0.1461,0.1459,0,0.1067,0.1066,0.1099,0.1106,0.1125,0.1161,0.1182,0.1246,0.1265,0.1362,0.1372,0.1456,0.1493,0.1491,0.1553,0.1571,0.1551,0.1541,0.148,0.1449,0.1436,0.1433,0.1431,0.1454,0.1454,0.1453,0.1452,0,0.1024,0.1052,0.1058,0.1073,0.1095,0.11,0.1139,0.1145,0.1215,0.1299,0.1314,0.1336,0.1388,0.142,0.145,0.1459,0.1538,0.1511,0.1516,0.1459,0.1431,0.142,0.1421,0.1442,0.1444,0.1445,0.1445,0,0.1006,0.1003,0.1021,0.1023,0.1044,0.102,0.1047,0.106,0.1086,0.1191,0.1198,0.1285,0.1369,0.1363,0.1394,0.1393,0.1359,0.1302,0.1317,0.1329,0.1259,0.1202,0.1137,0,0,0,0,0,0.0975,0.0961,0.0963,0.0943,0.0959,0.0967,0.1004,0.1032,0.1109,0.1084,0.1132,0.117,0.1198,0.1248,0.1217,0.1334,0.1371,0.1292,0.1314,0.1388,0.14,0.133,0,0,0,0,0,0,0.095,0.0958,0.094,0.0875,0.0854,0.085,0.0869,0.0919,0.0904,0.0998,0.1021,0.1096,0.1147,0.1208,0.1197,0.1212,0.1198,0.1352,0.1349,0.1382,0.1392,0.1401,0.1334,0,0,0,0,0]},{"header":{"parameterUnit":"m.s-1","parameterCategory":2,"la1":30.2991,"la2":30.254,"lo1":-89.0895,"lo2":-89.0444,"dy":0.0017,"dx":0.0017,"nx":28,"ny":28,"refTime":"2023-10-29T03:00:00:Z","depth":"4","parameterNumber":3,"parameterNumberName":"V-component_of_CURRENTS"},"data":[0,0,0,0,0,0,0,0,0,0,0,0,0,0,0,0,0,0,0,0,0,0,0,0,0,0,0,0,0,0,0,0,0,0,0,0,0,0,0,0,0,0,0,0,0,0,0,0,0,0,0,0,0,0,0,0,0,0,0.0251,0.0251,0,0.027,0.0271,0.0271,0.0282,0.0282,0.0282,0.0282,0.0303,0.0304,0.0304,0,0,0,0,0,0,0,0,0,0,0,0,0,0.0212,0.0213,0.0251,0.0251,0.0252,0.027,0.0271,0.0271,0.0282,0.0282,0.0282,0.0282,0.0303,0.0303,0.0304,0,0,0,0,0,0,0,0,0,0,0,0,0,0.023,0.0213,0.0251,0.0259,0.026,0.027,0.0271,0.0271,0.0282,0.0282,0.0282,0.0282,0.0303,0.0303,0.0304,0.0308,0,0,0.0307,0.0307,0,0,0,0,0,0,0,0,0.0229,0.0232,0.0258,0.0259,0.026,0.0274,0.0265,0.0283,0.0282,0.0274,0.0282,0.0282,0.0293,0.0295,0.0299,0.0309,0.031,0.0307,0.0307,0.0307,0.0308,0,0,0,0,0,0,0,0.0228,0.0231,0.0259,0.0258,0.0259,0.0258,0.0261,0.0268,0.0283,0.0275,0.0276,0.0278,0.0294,0.0298,0.0299,0.031,0.0307,0.0307,0.0308,0.0308,0.033,0.033,0,0,0,0,0,0,0.0226,0.023,0.0258,0.026,0.0244,0.0259,0.0262,0.0269,0.0283,0.0285,0.0277,0.0278,0.0296,0.0298,0.03,0.0322,0.0307,0.0308,0.0309,0.0329,0.033,0.033,0,0,0,0,0,0,0.0225,0.0229,0.0258,0.0245,0.0248,0.0259,0.0268,0.027,0.0279,0.0285,0.0287,0.0285,0.0296,0.0299,0.0312,0.0322,0.0309,0.0309,0.0329,0.033,0.033,0.0355,0,0,0,0,0,0,0.0224,0.0228,0.0237,0.0245,0.0249,0.027,0.0268,0.027,0.0279,0.028,0.0292,0.0294,0.0297,0.031,0.0312,0.0323,0.031,0.0329,0.0329,0.033,0.0354,0.0356,0.0357,0,0,0,0,0,0.0223,0.0235,0.0237,0.0241,0.0259,0.0271,0.0273,0.0281,0.028,0.0288,0.0293,0.0294,0.0313,0.0311,0.0314,0.0324,0.0329,0.0329,0.033,0.0353,0.0355,0.0357,0,0,0,0,0,0,0.0221,0.0237,0.024,0.0257,0.0265,0.0273,0.0283,0.0283,0.0294,0.0296,0.0299,0.0301,0.0315,0.0314,0.0312,0.0329,0.032,0.032,0.0337,0.0339,0.0341,0.0348,0.031,0,0,0,0,0,0.0225,0.0241,0.025,0.0263,0.0269,0.0275,0.0282,0.0285,0.0293,0.0298,0.0306,0.0311,0.0316,0.0323,0.0328,0.0341,0.0328,0.0347,0.0349,0.035,0.0357,0.0342,0.0343,0.033,0.033,0.033,0,0,0.0227,0.0239,0.0247,0.0264,0.0273,0.0287,0.028,0.0292,0.0305,0.0299,0.0321,0.0319,0.032,0.0334,0.034,0.0337,0.0345,0.0351,0.0352,0.0358,0.0342,0.0343,0.0345,0.0331,0.0331,0.0331,0,0,0.024,0.0251,0.0269,0.0279,0.0293,0.0298,0.0302,0.0312,0.032,0.0337,0.0332,0.0336,0.035,0.0352,0.0354,0.0368,0.0354,0.0367,0.0388,0.0373,0.0374,0.0375,0.0353,0.0352,0.0371,0.0371,0.0371,0,0.0242,0.0268,0.0274,0.0293,0.0306,0.0304,0.0324,0.0331,0.0344,0.0353,0.0348,0.0361,0.036,0.0373,0.0377,0.0374,0.0359,0.0381,0.0376,0.0376,0.0377,0.0355,0.0353,0.0372,0.0372,0.0372,0.0372,0,0.0268,0.029,0.0302,0.0328,0.034,0.0357,0.0365,0.0378,0.0383,0.0388,0.0402,0.0396,0.0404,0.0401,0.0396,0.0399,0.0386,0.0378,0.0372,0.038,0.0355,0.0353,0.0374,0.0373,0.0373,0.0373,0,0,0.0271,0.0313,0.0318,0.0341,0.0361,0.0376,0.0397,0.0418,0.0436,0.0438,0.0459,0.0457,0.0447,0.0447,0.0435,0.0423,0.0408,0.0405,0.0404,0.0386,0.037,0.0349,0.0344,0.0399,0.0399,0.0399,0.0349,0,0.0293,0.0338,0.0352,0.0394,0.0418,0.0426,0.0449,0.0464,0.0473,0.0491,0.0478,0.0492,0.0466,0.047,0.0452,0.0424,0.0404,0.0422,0.0363,0.0361,0.0343,0.0341,0.0399,0.0347,0.0347,0.0346,0.0346,0,0.0317,0.0346,0.0392,0.0438,0.0449,0.0473,0.0511,0.053,0.0545,0.0551,0.055,0.0539,0.0528,0.0502,0.045,0.0462,0.0418,0.0389,0.0386,0.0358,0.0336,0.0339,0.0342,0.0342,0.0342,0.0343,0.0343,0,0.0326,0.0376,0.0418,0.0433,0.0479,0.0505,0.0529,0.0552,0.0577,0.059,0.0604,0.058,0.0576,0.0521,0.0456,0.0454,0.0392,0.038,0.0316,0.0313,0.0337,0.0336,0.0336,0.0337,0.0337,0.0337,0.0337,0,0.0347,0.0381,0.0429,0.0454,0.0508,0.0528,0.0581,0.0598,0.0626,0.0658,0.0636,0.0646,0.0582,0.0539,0.0469,0.0385,0.0398,0.0319,0.0301,0.0347,0.0348,0.0334,0.0335,0.0335,0.0335,0.0336,0.0336,0,0.0354,0.0384,0.0437,0.0494,0.0517,0.0556,0.0622,0.0656,0.0675,0.0714,0.0722,0.0699,0.0643,0.0566,0.0478,0.0407,0.0327,0.0292,0.0344,0.033,0.0253,0.0255,0.0217,0.0216,0.0215,0.0214,0.0213,0,0.0364,0.0392,0.0466,0.0502,0.0534,0.0595,0.0638,0.0679,0.0714,0.0744,0.0761,0.0727,0.0697,0.0554,0.0468,0.0331,0.0307,0.0255,0.0254,0.0256,0.0242,0.0246,0.0249,0.0212,0.0212,0.0211,0.0211,0,0.0381,0.0409,0.0453,0.0524,0.058,0.0643,0.0706,0.0734,0.0778,0.0797,0.0789,0.0723,0.0658,0.055,0.0445,0.0346,0.0285,0.0245,0.0246,0.0244,0.0249,0.0237,0.0242,0.0208,0.0208,0.0209,0.0209,0,0.0395,0.0424,0.0481,0.0543,0.0612,0.0672,0.0709,0.075,0.0784,0.081,0.0805,0.0738,0.0704,0.0557,0.0461,0.0362,0.0332,0.0284,0.0283,0.0285,0.0317,0.0334,0.0304,0,0,0,0,0,0.0405,0.0437,0.0494,0.0562,0.0629,0.0671,0.0744,0.0774,0.0816,0.0809,0.0807,0.0745,0.0608,0.0555,0.0452,0.0438,0.0313,0.0311,0.0257,0.019,0.0194,0.0218,0,0,0,0,0,0,0.0412,0.0464,0.0489,0.0565,0.0611,0.0688,0.0738,0.0769,0.0765,0.0786,0.0718,0.0695,0.0568,0.0663,0.0441,0.0414,0.0359,0.0256,0.0253,0.0188,0.0191,0.0194,0.022,0,0,0,0,0]}]]